IRA7341 OOMS-OISS

Flight info

Callsign IRA7341
Flight time N/A
Altitude 12000
Route PASOV T509 MENSA/N0460F340 N317 REXEV DCT MISEG/N0460F350 R401 GABKO/N0459F360 M317 ROTAL P574 KASOL
Aircraft B738/M-SDE2E3FGHIRWXY/LB1

Departure

Time 2026-05-06 14:20
Airport Muscat International Airport (OOMS)

Arrival

Time N/A
Airport Shiraz Shahid Dastghaib International Airport (OISS)
Time Latitude Longitude Altitude Speed Heading
2026-05-06 14:00 23.59714 58.27660 41 ft 0 kts 310°
2026-05-06 14:12 23.59711 58.27663 40 ft 4 kts 310°
2026-05-06 14:13 23.59694 58.27686 42 ft 4 kts 307°
2026-05-06 14:13 23.59678 58.27710 42 ft 4 kts 304°
2026-05-06 14:13 23.59664 58.27735 42 ft 4 kts 297°
2026-05-06 14:13 23.59654 58.27761 44 ft 4 kts 275°
2026-05-06 14:14 23.59657 58.27782 44 ft 1 kts 220°
2026-05-06 14:16 23.59640 58.27767 42 ft 7 kts 220°
2026-05-06 14:16 23.59603 58.27733 42 ft 7 kts 220°
2026-05-06 14:16 23.59567 58.27701 43 ft 7 kts 220°
2026-05-06 14:16 23.59543 58.27659 44 ft 7 kts 251°
2026-05-06 14:17 23.59536 58.27594 44 ft 11 kts 264°
2026-05-06 14:17 23.59526 58.27497 44 ft 15 kts 264°
2026-05-06 14:17 23.59514 58.27366 44 ft 19 kts 264°
2026-05-06 14:17 23.59499 58.27207 43 ft 23 kts 264°
2026-05-06 14:18 23.59482 58.27024 43 ft 26 kts 264°
2026-05-06 14:18 23.59466 58.26825 43 ft 27 kts 267°
2026-05-06 14:18 23.59385 58.26681 43 ft 25 kts 179°
2026-05-06 14:18 23.59288 58.26696 43 ft 12 kts 170°
2026-05-06 14:19 23.59205 58.26713 42 ft 12 kts 156°
2026-05-06 14:19 23.59178 58.26814 43 ft 21 kts 81°
2026-05-06 14:19 23.59202 58.27172 44 ft 81 kts 84°
2026-05-06 14:19 23.59276 58.28038 43 ft 146 kts 85°
2026-05-06 14:20 23.59399 58.29312 147 ft 189 kts 82°
2026-05-06 14:20 23.59746 58.30772 648 ft 206 kts 70°
2026-05-06 14:20 23.60357 58.32258 1059 ft 224 kts 62°
2026-05-06 14:20 23.61185 58.33769 1431 ft 241 kts 56°
2026-05-06 14:21 23.62200 58.35316 1765 ft 261 kts 51°
2026-05-06 14:21 23.63624 58.36515 2660 ft 257 kts 21°
2026-05-06 14:21 23.65350 58.36796 3701 ft 253 kts 353°
2026-05-06 14:21 23.67007 58.36151 4499 ft 257 kts 322°
2026-05-06 14:22 23.68184 58.34704 5289 ft 258 kts 297°
2026-05-06 14:22 23.68931 58.32912 6078 ft 262 kts 291°
2026-05-06 14:22 23.69619 58.31054 6938 ft 264 kts 291°
2026-05-06 14:22 23.70300 58.29190 7726 ft 269 kts 291°
2026-05-06 14:23 23.70993 58.27274 8511 ft 272 kts 291°
2026-05-06 14:23 23.71687 58.25350 9304 ft 275 kts 291°
2026-05-06 14:23 23.72394 58.23387 9232 ft 287 kts 290°
2026-05-06 14:23 23.73159 58.21312 9667 ft 294 kts 290°
2026-05-06 14:24 23.73931 58.19242 10093 ft 294 kts 290°
2026-05-06 14:24 23.74711 58.17158 10361 ft 303 kts 291°
2026-05-06 14:24 23.75526 58.14979 10485 ft 317 kts 290°
2026-05-06 14:24 23.76380 58.12704 10571 ft 330 kts 291°
2026-05-06 14:25 23.77259 58.10338 10662 ft 342 kts 290°
2026-05-06 14:25 23.78170 58.07892 10759 ft 353 kts 290°
2026-05-06 14:25 23.79095 58.05402 10824 ft 364 kts 291°
2026-05-06 14:25 23.80054 58.02812 10902 ft 373 kts 290°
2026-05-06 14:26 23.81037 58.00146 10940 ft 383 kts 290°
2026-05-06 14:26 23.82040 57.97423 11034 ft 389 kts 291°
2026-05-06 14:26 23.83316 57.94795 11215 ft 394 kts 303°
2026-05-06 14:26 23.84918 57.92361 11499 ft 395 kts 307°
2026-05-06 14:27 23.86649 57.90034 11772 ft 396 kts 309°
2026-05-06 14:27 23.88438 57.87744 11996 ft 397 kts 310°
2026-05-06 14:27 23.90250 57.85456 12211 ft 399 kts 310°
2026-05-06 14:27 23.92066 57.83158 12433 ft 400 kts 310°
2026-05-06 14:28 23.93293 57.81597 12590 ft 401 kts 310°
2026-05-06 14:28 23.95107 57.79276 12804 ft 402 kts 310°
2026-05-06 14:28 23.96899 57.76969 12978 ft 404 kts 310°
2026-05-06 14:28 23.98718 57.74618 13180 ft 405 kts 310°
2026-05-06 14:29 24.00560 57.72228 13390 ft 406 kts 311°
2026-05-06 14:29 24.02384 57.69859 13564 ft 408 kts 311°
2026-05-06 14:29 24.04188 57.67513 13738 ft 409 kts 310°
2026-05-06 14:29 24.06018 57.65131 13926 ft 409 kts 311°
2026-05-06 14:30 24.07847 57.62749 14121 ft 409 kts 310°
2026-05-06 14:30 24.09675 57.60366 14290 ft 409 kts 311°
2026-05-06 14:30 24.11530 57.57950 14447 ft 410 kts 311°
2026-05-06 14:30 24.13343 57.55585 14571 ft 411 kts 311°
2026-05-06 14:31 24.15181 57.53187 14740 ft 411 kts 311°
2026-05-06 14:31 24.17022 57.50786 14894 ft 412 kts 311°
2026-05-06 14:31 24.18863 57.48381 15030 ft 413 kts 311°
2026-05-06 14:31 24.20711 57.45968 15163 ft 414 kts 311°
2026-05-06 14:32 24.22559 57.43553 15284 ft 414 kts 310°
2026-05-06 14:32 24.24409 57.41134 15421 ft 415 kts 310°
2026-05-06 14:32 24.26262 57.38710 15545 ft 415 kts 310°
2026-05-06 14:32 24.28118 57.36280 15692 ft 415 kts 311°
2026-05-06 14:33 24.29971 57.33853 15828 ft 415 kts 311°
2026-05-06 14:33 24.31827 57.31421 15922 ft 417 kts 310°
2026-05-06 14:33 24.33689 57.28981 16012 ft 418 kts 311°
2026-05-06 14:33 24.35553 57.26536 16130 ft 418 kts 310°
2026-05-06 14:34 24.37422 57.24083 16243 ft 419 kts 311°
2026-05-06 14:34 24.39290 57.21631 16342 ft 419 kts 311°
2026-05-06 14:34 24.41161 57.19174 16432 ft 420 kts 311°
2026-05-06 14:34 24.43036 57.16710 16519 ft 421 kts 310°
2026-05-06 14:35 24.44913 57.14242 16612 ft 421 kts 310°
2026-05-06 14:35 24.46790 57.11772 16709 ft 422 kts 311°
2026-05-06 14:35 24.48671 57.09297 16770 ft 423 kts 310°
2026-05-06 14:35 24.50560 57.06810 16818 ft 425 kts 310°
2026-05-06 14:36 24.52451 57.04318 16915 ft 425 kts 310°
2026-05-06 14:36 24.54344 57.01823 16997 ft 425 kts 310°
2026-05-06 14:36 24.56236 56.99327 17077 ft 426 kts 310°
2026-05-06 14:36 24.58132 56.96825 17157 ft 426 kts 310°
2026-05-06 14:37 24.60031 56.94317 17235 ft 427 kts 310°
2026-05-06 14:37 24.61929 56.91810 17310 ft 427 kts 310°
2026-05-06 14:37 24.63826 56.89303 17419 ft 426 kts 310°
2026-05-06 14:37 24.65724 56.86792 17473 ft 427 kts 310°
2026-05-06 14:38 24.67627 56.84275 17525 ft 428 kts 310°
2026-05-06 14:38 24.69503 56.81792 17576 ft 429 kts 310°
2026-05-06 14:38 24.71411 56.79265 17634 ft 429 kts 310°
2026-05-06 14:38 24.73317 56.76739 17750 ft 430 kts 310°
2026-05-06 14:39 24.75230 56.74202 17796 ft 431 kts 310°
2026-05-06 14:39 24.77143 56.71665 17792 ft 431 kts 310°